User: anonymous   Login
Location: ??
(35.5052°N, 139.7262°E)
Time: 04:28:24
(UTC+00:00)
Language:

NOSS 3-1 (A) - Orbit

View from above orbital plane
View from above orbital plane
View from above satellite
View from above satellite

Ground track
Ground track

The orbit data is extracted from the following two-line orbital elements,

1 26905U 01040A   21261.11692328 0.00000020  00000-0  16854-4 0    04
2 26905  63.4042  20.1520 0508700   2.2191 357.7809 13.40797669    09
Epoch (UTC): 18 September 2021 02:48:22
Eccentricity: 0.0508700
inclination: 63.4042°
perigee height: 725 km
apogee height: 1487 km
right ascension of ascending node: 20.1520°
argument of perigee: 2.2191°
revolutions per day: 13.40797669
mean anomaly at epoch: 357.7809°
orbit number at epoch: 0

The dashed part of the orbit path shows where the satellite is in the earth's shadow,  

DLR